Date String (YYYY-MM-DD hh:mm:ss) UTC,Instrument flags,absolute air pressure of the measurement (hPa),sample flow rate (lpm),inlet stack bypass flow (lpm),air temperature of the measurement (°C),ambient temperature measured by the external sensor (°C),aerosol sample conditioner tube jacket temperature (°C),OPC LED temperature (°C),internal box temperature (°C),relative humidity of the measurement (%),span deviation,mass concentration of particles derived from Lorenz-Mie calculation of OPC scattering (μg/m³),mass concentration of particles derived from Lorenz-Mie calculation of OPC scattering (μg/m³),mass concentration of particles derived from Lorenz-Mie calculation of OPC scattering (μg/m³)
DateTimeUTC,F1_M11,P_M11,Q1_M11,Q2_M11,T1_M11,T2_M11,T3_M11,T4_M11,T5_M11,U1_M11,ZSPAN_M11,X0_M11,X2_M11,X1_M11
2023-10-14 21:00:00,SystemResetWarning,0836.5,5.00,000.00,027.8,026.6,000.0,036.1,029.6,13.4,0000.6,0009.95,0005.99,0005.61
2023-10-14 21:01:00,SystemResetWarning,0836.5,5.00,000.00,027.9,026.6,000.0,036.2,029.6,13.5,0000.4,0009.98,0006.01,0005.61
2023-10-14 21:02:00,SystemResetWarning,0836.4,5.00,000.00,027.9,026.7,000.0,036.2,029.6,13.3,0000.2,0010.01,0006.00,0005.60
2023-10-14 21:03:00,SystemResetWarning,0836.4,5.00,000.00,027.9,026.7,000.0,036.2,029.6,13.3,-000.4,0010.05,0006.02,0005.61
2023-10-14 21:04:00,SystemResetWarning,0836.4,5.00,000.00,027.9,026.7,000.0,036.2,029.6,13.2,-001.4,0010.03,0006.02,0005.61
2023-10-14 21:05:00,SystemResetWarning,0836.3,5.00,000.00,027.9,026.7,000.0,036.2,029.7,13.2,-001.1,0010.09,0006.02,0005.61
2023-10-14 21:06:00,SystemResetWarning,0836.4,5.00,000.00,027.9,026.7,000.0,036.2,029.7,13.2,-001.4,0010.45,0006.03,0005.61
2023-10-14 21:07:00,SystemResetWarning,0836.4,4.99,000.00,028.0,026.7,000.0,036.2,029.7,13.2,-001.4,0010.33,0006.04,0005.61
2023-10-14 21:08:00,SystemResetWarning,0836.4,5.00,000.00,028.0,026.7,000.0,036.2,029.7,13.0,-001.4,0011.14,0006.02,0005.60
2023-10-14 21:09:00,SystemResetWarning,0836.4,5.00,000.00,028.0,026.7,000.0,036.3,029.7,13.0,-001.2,0011.06,0005.99,0005.58
2023-10-14 21:10:00,SystemResetWarning,0836.4,5.00,000.00,028.0,026.7,000.0,036.3,029.6,13.0,-001.7,0010.50,0005.97,0005.57
2023-10-14 21:11:00,SystemResetWarning,0836.4,5.00,000.00,028.0,026.7,000.0,036.3,029.6,13.0,-001.5,0010.70,0005.96,0005.55
2023-10-14 21:12:00,SystemResetWarning,0836.4,5.00,000.00,028.0,026.7,000.0,036.3,029.7,13.0,-000.4,0010.65,0005.93,0005.54
2023-10-14 21:13:00,SystemResetWarning,0836.4,5.00,000.00,028.0,026.7,000.0,036.3,029.7,13.0,-000.2,0010.72,0005.95,0005.56
2023-10-14 21:14:00,SystemResetWarning,0836.4,5.00,000.00,028.0,026.7,000.0,036.3,029.7,12.9,0000.2,0010.90,0005.94,0005.55
2023-10-14 21:15:00,SystemResetWarning,0836.4,5.00,000.00,028.0,026.7,000.0,036.3,029.7,12.9,0000.8,0010.91,0005.94,0005.54
2023-10-14 21:16:00,SystemResetWarning,0836.3,5.00,000.00,028.0,026.7,000.0,036.3,029.7,13.0,0001.2,0010.80,0005.92,0005.54
2023-10-14 21:17:00,SystemResetWarning,0836.3,5.00,000.00,028.0,026.7,000.0,036.3,029.7,13.2,0000.9,0010.75,0005.92,0005.54
2023-10-14 21:18:00,SystemResetWarning,0836.4,5.00,000.00,028.0,026.7,000.0,036.3,029.7,13.1,0000.7,0010.41,0005.88,0005.50
2023-10-14 21:19:00,SystemResetWarning,0836.4,5.00,000.00,028.1,026.7,000.0,036.4,029.7,13.2,0000.3,0009.40,0005.87,0005.48
2023-10-14 21:20:00,SystemResetWarning,0836.4,5.00,000.00,028.1,026.8,000.0,036.4,029.8,13.2,0000.7,0009.38,0005.87,0005.49
2023-10-14 21:21:00,SystemResetWarning,0836.4,5.00,000.00,028.1,026.8,000.0,036.4,029.8,13.2,0001.4,0009.38,0005.86,0005.47
2023-10-14 21:22:00,SystemResetWarning,0836.4,5.00,000.00,028.1,026.8,000.0,036.4,029.8,13.1,0001.4,0008.95,0005.82,0005.46
2023-10-14 21:23:00,SystemResetWarning,0836.4,5.00,000.00,028.1,026.8,000.0,036.4,029.8,13.0,0001.0,0008.81,0005.78,0005.44
2023-10-14 21:24:00,SystemResetWarning,0836.4,5.00,000.00,028.1,026.8,000.0,036.4,029.7,13.0,0001.0,0008.78,0005.76,0005.40
2023-10-14 21:25:00,SystemResetWarning,0836.4,5.00,000.00,028.1,026.8,000.0,036.4,029.7,12.9,0000.5,0008.59,0005.73,0005.36
2023-10-14 21:26:00,SystemResetWarning,0836.4,5.00,000.00,028.1,026.8,000.0,036.4,029.7,12.9,0000.8,0008.57,0005.71,0005.34
2023-10-14 21:27:00,SystemResetWarning,0836.4,5.00,000.00,028.1,026.8,000.0,036.4,029.8,13.0,0000.0,0008.71,0005.71,0005.33
2023-10-14 21:28:00,SystemResetWarning,0836.4,5.00,000.00,028.1,026.8,000.0,036.4,029.8,13.0,0000.7,0008.64,0005.68,0005.32
2023-10-14 21:29:00,SystemResetWarning,0836.4,5.00,000.00,028.1,026.8,000.0,036.4,029.8,13.0,0001.2,0008.45,0005.66,0005.33
2023-10-14 21:30:00,SystemResetWarning,0836.4,5.00,000.00,028.1,026.9,000.0,036.5,029.8,12.9,0001.6,0008.56,0005.67,0005.35
2023-10-14 21:31:00,SystemResetWarning,0836.5,5.00,000.00,028.1,026.9,000.0,036.5,029.8,12.9,0000.4,0009.38,0005.67,0005.34
2023-10-14 21:32:00,SystemResetWarning,0836.5,5.00,000.00,028.1,026.8,000.0,036.5,029.8,12.9,0000.0,0009.36,0005.64,0005.33
2023-10-14 21:33:00,SystemResetWarning,0836.4,5.00,000.00,028.1,026.8,000.0,036.5,029.8,13.0,0000.9,0009.37,0005.66,0005.34
2023-10-14 21:34:00,SystemResetWarning,0836.5,5.00,000.00,028.2,026.9,000.0,036.5,029.8,13.0,0001.2,0009.56,0005.66,0005.33
2023-10-14 21:35:00,SystemResetWarning,0836.5,5.00,000.00,028.2,026.9,000.0,036.5,029.8,13.0,0000.0,0009.56,0005.66,0005.33
2023-10-14 21:36:00,SystemResetWarning,0836.5,5.00,000.00,028.2,026.9,000.0,036.5,029.8,12.9,0000.0,0009.48,0005.64,0005.33
2023-10-14 21:37:00,SystemResetWarning,0836.5,4.99,000.00,028.2,026.9,000.0,036.5,029.8,12.9,0000.3,0009.60,0005.63,0005.34
2023-10-14 21:38:00,SystemResetWarning,0836.5,5.00,000.00,028.2,026.9,000.0,036.5,029.8,12.8,0002.5,0009.88,0005.59,0005.32
2023-10-14 21:39:00,SystemResetWarning,0836.4,5.00,000.00,028.2,026.9,000.0,036.5,029.8,12.8,0002.5,0010.32,0005.59,0005.30
2023-10-14 21:40:00,SystemResetWarning,0836.5,5.00,000.00,028.2,026.9,000.0,036.5,029.8,12.8,0001.0,0010.52,0005.58,0005.29
2023-10-14 21:41:00,SystemResetWarning,0836.5,5.00,000.00,028.2,026.9,000.0,036.5,029.9,12.8,0001.4,0010.58,0005.58,0005.26
2023-10-14 21:42:00,SystemResetWarning,0836.5,5.00,000.00,028.2,026.9,000.0,036.5,029.9,12.8,0002.5,0009.77,0005.55,0005.23
2023-10-14 21:43:00,SystemResetWarning,0836.5,5.00,000.00,028.2,027.0,000.0,036.6,029.9,12.9,0002.4,0010.26,0005.51,0005.20
2023-10-14 21:44:00,SystemResetWarning,0836.5,5.00,000.00,028.2,027.0,000.0,036.6,029.9,13.2,0001.4,0010.29,0005.50,0005.18
2023-10-14 21:45:00,SystemResetWarning,0836.5,5.00,000.00,028.2,027.0,000.0,036.6,029.9,13.3,0000.4,0010.24,0005.50,0005.17
2023-10-14 21:46:00,SystemResetWarning,0836.5,5.00,000.00,028.2,027.0,000.0,036.6,029.9,13.2,0001.9,0010.35,0005.51,0005.16
2023-10-14 21:47:00,SystemResetWarning,0836.5,5.00,000.00,028.2,027.0,000.0,036.6,029.9,13.0,0001.9,0010.31,0005.47,0005.14
2023-10-14 21:48:00,SystemResetWarning,0836.5,5.00,000.00,028.2,027.0,000.0,036.6,029.9,12.9,0002.2,0010.23,0005.46,0005.12
2023-10-14 21:49:00,SystemResetWarning,0836.5,5.00,000.00,028.2,026.9,000.0,036.6,029.9,12.9,0002.5,0009.80,0005.45,0005.11
2023-10-14 21:50:00,SystemResetWarning,0836.5,5.00,000.00,028.2,026.9,000.0,036.6,029.9,12.9,0002.8,0009.05,0005.41,0005.08
2023-10-14 21:51:00,SystemResetWarning,0836.5,5.00,000.00,028.2,026.9,000.0,036.6,029.9,13.0,0003.0,0009.18,0005.37,0005.05
2023-10-14 21:52:00,SystemResetWarning,0836.5,5.00,000.00,028.2,026.9,000.0,036.6,029.9,12.9,0002.6,0010.19,0005.34,0005.02
2023-10-14 21:53:00,SystemResetWarning,0836.5,5.00,000.00,028.3,026.9,000.0,036.6,029.9,13.0,0002.7,0010.72,0005.31,0005.00
2023-10-14 21:54:00,SystemResetWarning,0836.4,4.98,000.00,028.3,027.0,000.0,036.6,029.9,13.1,0002.5,0010.14,0005.32,0005.00
2023-10-14 21:55:00,SystemResetWarning,0836.4,4.99,000.00,028.3,027.0,000.0,036.6,029.9,13.0,0002.3,0010.11,0005.31,0004.98
2023-10-14 21:56:00,SystemResetWarning,0836.5,5.00,000.00,028.2,026.9,000.0,036.7,029.9,12.9,0002.6,0010.05,0005.28,0004.95
2023-10-14 21:57:00,SystemResetWarning,0836.5,5.00,000.00,028.2,026.9,000.0,036.7,029.8,12.9,0001.8,0009.90,0005.26,0004.95
2023-10-14 21:58:00,SystemResetWarning,0836.5,5.00,000.00,028.2,026.9,000.0,036.7,029.8,13.0,0001.2,0010.11,0005.28,0004.95
2023-10-14 21:59:00,SystemResetWarning,0836.5,4.99,000.00,028.2,026.8,000.0,036.7,029.8,13.0,0000.8,0010.66,0005.32,0004.97
